Showing default

ICEYE-X26, 56961

Orbit data source: Space-Track

ICEYE-X26, 56961 is a payload satellite owned by ICEYE US (US) in SSO that was launched on Mon, 12 Jun 2023 UTC via an FALCON 9 launch vehicle from the Air Force Western Test Range (AFWTR). Payload-class satellites include a variety of spacecraft equipped with specific instruments for various scientific and technological missions. These include communications satellites like Starlink; space stations such as the ISS; scientific satellites like the Hubble; Earth observation satellites from companies like Planet Labs, Umbra, and HawkEye 360; GPS; miniature CubeSats for education and research; and military/defense satellites.

Not visible in the next 10 days
Identifier
56961, 2023-084AF
Orbit
SSO
Country
Flag of USUS
Related business
Manufacturer
ICEYE
Mission
Operational Commercial Radar Imaging
Bus & Motor
ICEYE, Unknown motor
Mass
90 kg wet, 89 kg dry
Launch date (UTC)
2023-06-12 (3 years ago)
Launch vehicle
FALCON 9
Launch site
Air Force Western Test Range (AFWTR)
Object type
Payload
Rocket body
Debris
Shape & HBR
Box + 1 Pan, 1.6 m
Radar Cross Section
0.825 m², Medium (>0.1 m² and < 1m²)

Expand to show TLE details & history
Last TLE update: 14 hours ago

TLE from 14 hours ago
0 ICEYE-X26
1 56961U 23084AF  26149.43899926  .02234045  25134-5  14272-2 0  9994
2 56961  97.5552 313.5180 0012820 278.9531  81.0305 16.17364176166283
Epoch: 2026-05-29T10:32Z
TLE epoch observation values (Epoch: 2026-05-29T10:32:09.536Z)
Latitude
0.00004°
Longitude
-91.49111°
Altitude
228.625 km
Speed
7.77 km/s
True Right ascension
20h 54m 04s
True Declination
0° 00' 00"
Sunlit
Object was in full shadow at epoch
Visualization orbit readout
Latitude
Unknown
Longitude
Unknown
Altitude
Unknown
Speed
Unknown
Apparent Right ascension
Unknown
Apparent Declination
Unknown
Sunlit
N/A
Visualization observer readout
Local Sidereal Time
10:10:24
Azimuth
Unknown
Elevation
Unknown
Doppler factor
Unknown
Orbital elements
Apogee altitude
232.026 km
Perigee altitude
215.099 km
Semi-major axis
6,601.699 km
Eccentricity
0.00128
Inclination
97.5552°
RAAN
313.518°
Arg. of periapsis
278.9531°
True anomaly
81.17565°
Mean anomaly
81.0305°
Eccentric anomaly
81.10307°
Mean motion
4.04631 °/min
Orbital period
88.97 mins
BSTAR
0.0014272
Loading maneuver chart data...
Computing Atmospheric mass density...

Documentation

Showing up to 5 results
|